Home   Weather   Bordeaux   Past weeks
Flag for France

Past Weather in Bordeaux, Nouvelle-Aquitaine, France — Yesterday and Last 2 Weeks

Now
54 °F

Passing clouds.


Feels Like: 52 °F
Forecast: 63 / 51 °F
Wind: 6 mph from South

Location: Bordeaux / Merignac

Current Time: Oct 15, 2019 at 6:32:29 am

Latest Report: Oct 15, 2019 at 6:00 am


Visibility: N/A

Pressure: 29.86 "Hg

Humidity: 100%

Dew Point: 54 °F

Location of BordeauxLocation

Past Weather in Bordeaux — Graph

°F

Bordeaux Temperature Yesterday

Maximum temperature yesterday: 73 °F (at 2:00 pm)
Minimum temperature yesterday: 59 °F (at 8:30 pm)
Average temperature yesterday: 65 °F

High & Low Weather Summary for the Past Weeks

 TemperatureHumidityPressure
High86 °F (Oct 13, 2:00 pm)100% (Oct 1, 6:30 am)30.21 "Hg (Oct 1, 6:30 am)
Low50 °F (Oct 3, 5:30 am)29% (Oct 13, 3:30 pm)29.71 "Hg (Oct 14, 6:30 am)
Average63 °F79%30.01 "Hg
* Reported Sep 30 5:00 am — Oct 15 5:00 am, Bordeaux. Weather by CustomWeather, © 2019

Note: Actual official high and low records may vary slightly from our data, if they occured in-between our weather recording intervals... More about our weather records

Advertising

Bordeaux Weather History for the Previous 24 Hours

Scroll right to see more
 ConditionsComfort  
Time TempWeatherWind HumidityBarometerVisibility
5:00 am
Tue, Oct 15
54 °FLight rain. Partly cloudy.1 mph94%29.83 "HgN/A
4:30 am54 °FRain. Mostly cloudy.6 mph94%29.86 "Hg5 mi
4:00 am55 °FHeavy rain. Fog.9 mph94%29.83 "Hg3 mi
3:30 am55 °FLight rain. Partly cloudy.10 mph94%29.83 "HgN/A
3:00 am55 °FLight rain. Mostly cloudy.7 mph94%29.83 "HgN/A
2:30 am55 °FLight rain. Overcast.8 mph94%29.83 "HgN/A
2:00 am55 °FRain. Overcast.8 mph94%29.83 "HgN/A
1:30 am55 °FRain. Partly cloudy.10 mph100%29.83 "HgN/A
1:00 am55 °FLight rain. Partly cloudy.9 mph100%29.83 "HgN/A
12:30 am55 °FLight rain. Partly cloudy.7 mph100%29.83 "HgN/A
12:00 am55 °FLight rain. Mostly cloudy.9 mph100%29.83 "HgN/A
11:30 pm
Mon, Oct 14
59 °FHeavy rain. Partly cloudy.14 mph88%29.83 "Hg4 mi
11:00 pm59 °FRain. Overcast.8 mph88%29.80 "Hg6 mi
10:30 pm59 °FLight rain. Overcast.6 mph94%29.80 "HgN/A
10:00 pm59 °FClear.3 mph94%29.77 "Hg10 mi
9:30 pm59 °FClear.5 mph94%29.80 "Hg10 mi
9:00 pm61 °FClear.2 mph94%29.77 "Hg10 mi
8:30 pm59 °FPassing clouds.1 mph100%29.80 "HgN/A
8:00 pm61 °FLight fog.3 mph94%29.80 "HgN/A
7:30 pm61 °FClear.3 mph94%29.77 "Hg10 mi
7:00 pm63 °FSunny.3 mph88%29.77 "Hg10 mi
6:30 pm63 °FMild.5 mph88%29.80 "HgN/A
6:00 pm61 °FCool.8 mph94%29.80 "HgN/A
5:30 pm61 °FRain. Broken clouds.10 mph94%29.77 "Hg4 mi
5:00 pm61 °FThunderstorms. Broken clouds.14 mph94%29.77 "HgN/A
4:30 pm61 °FThunderstorms. Broken clouds.10 mph94%29.77 "HgN/A
4:00 pm63 °FThundershowers. Broken clouds.18 mph88%29.74 "HgN/A
3:30 pm70 °FThunderstorms. Broken clouds.18 mph73%29.71 "HgN/A
3:00 pm73 °FPassing clouds.14 mph65%29.71 "HgN/A
2:30 pm73 °FSunny.14 mph65%29.71 "Hg10 mi
2:00 pm73 °FPassing clouds.12 mph65%29.71 "HgN/A
1:30 pm72 °FSunny.14 mph69%29.71 "Hg10 mi
1:00 pm72 °FSunny.16 mph69%29.71 "Hg10 mi
12:30 pm70 °FSunny.14 mph73%29.71 "Hg10 mi
12:00 pm70 °FMild.13 mph73%29.71 "HgN/A
11:30 am70 °FMild.12 mph73%29.71 "HgN/A
11:00 am68 °FMild.8 mph78%29.74 "HgN/A
10:30 am66 °FSunny.7 mph83%29.74 "Hg10 mi
10:00 am66 °FPartly sunny.8 mph83%29.71 "HgN/A
9:30 am66 °FPartly sunny.15 mph83%29.71 "HgN/A
9:00 am64 °FMild.14 mph88%29.71 "HgN/A
8:30 am64 °FMostly cloudy.15 mph88%29.71 "HgN/A
8:00 am64 °FClear.16 mph88%29.71 "Hg10 mi
7:30 am64 °FClear.15 mph88%29.71 "Hg10 mi
7:00 am64 °FClear.15 mph88%29.71 "Hg10 mi
6:30 am64 °FClear.14 mph88%29.71 "Hg10 mi
6:00 am64 °FClear.14 mph88%29.74 "Hg10 mi
Weather by CustomWeather, © 2019

See weather overview